FW4825 Weather Reports


Display with metric or nautical units.
time (UTC)temp
F
wind
direction
speed
MPH
gust
MPH
rain 1hr
in
rain 24hr
in
rain mn
in
humidity
%
barometer
mb
20260506062517 47 0.0 0.0 0.00 0.28 0.00 89 1012.8
20260506061517 48 0.0 0.0 0.00 0.28 0.00 89 1013.0
20260506060517 48 0.0 0.0 0.00 0.28 0.00 89 1013.0
20260506050517 48 0.0 0.0 0.00 0.29 0.00 89 1012.5
20260506044515 48 0.0 0.0 0.01 0.29 0.29 89 1012.6
20260506043515 48 0.0 0.0 0.01 0.36 0.29 88 1012.6
20260506042515 48 0.0 0.0 0.01 0.46 0.29 88 1012.8
20260506041515 48 0.0 0.0 0.01 0.46 0.29 88 1012.8
20260506040515 48 0.0 0.0 0.01 0.46 0.29 88 1012.8
20260506035516 48 0.0 0.0 0.01 0.46 0.29 88 1012.8
20260506034515 48 0.0 0.0 0.01 0.45 0.28 88 1012.7
20260506033515 48 0.0 0.0 0.01 0.45 0.28 88 1012.8
20260506032515 48 0.0 0.0 0.02 0.45 0.28 88 1012.8
20260506031515 48 0.0 1.0 0.02 0.45 0.28 87 1012.9
20260506025515 48 0.0 1.0 0.03 0.45 0.28 87 1012.8
20260506024515 49 158 1.0 5.0 0.02 0.44 0.27 87 1012.7
20260506023515 49 270 1.0 3.0 0.02 0.44 0.27 87 1012.5
20260506022515 49 0.0 2.0 0.01 0.43 0.26 87 1012.5
20260506021515 49 0.0 1.0 0.02 0.43 0.26 86 1012.6
20260506020535 49 293 1.0 2.0 0.02 0.43 0.26 86 1012.3
20260506015535 49 0.0 0.0 0.02 0.42 0.25 86 1012.0
20260506014515 49 0.0 2.0 0.02 0.42 0.25 86 1011.8
20260506013517 49 0.0 1.0 0.03 0.42 0.25 86 1011.4
20260506012517 49 0.0 0.0 0.03 0.42 0.25 86 1011.3
20260506011517 49 0.0 0.0 0.03 0.41 0.24 86 1011.4
20260506010517 49 0.0 1.0 0.03 0.41 0.24 85 1011.4
20260506005517 49 0.0 0.0 0.02 0.40 0.23 85 1011.2
20260506004537 49 0.0 1.0 0.02 0.40 0.23 85 1011.4
20260506003517 50 0.0 1.0 0.01 0.39 0.22 85 1011.4
20260506002517 50 0.0 0.0 0.01 0.39 0.22 85 1011.1
20260506001517 50 0.0 0.0 0.00 0.38 0.21 85 1010.8
20260506000517 50 0.0 0.0 0.01 0.38 0.21 85 1011.0
20260505235517 50 0.0 1.0 0.01 0.38 0.21 85 1011.0
20260505234517 50 0.0 0.0 0.01 0.38 0.21 85 1010.7
20260505233517 50 0.0 0.0 0.01 0.38 0.21 85 1010.7
20260505232517 50 0.0 0.0 0.01 0.38 0.21 84 1010.8
20260505231517 50 0.0 0.0 0.01 0.38 0.21 84 1010.7
20260505230517 50 0.0 0.0 0.00 0.37 0.20 83 1010.9
20260505225517 50 0.0 1.0 0.01 0.37 0.20 84 1011.2
20260505224517 50 0.0 0.0 0.01 0.37 0.20 83 1011.2
20260505223517 50 0.0 0.0 0.01 0.37 0.20 83 1011.2
20260505222517 50 0.0 1.0 0.02 0.37 0.20 83 1011.3
20260505221537 50 0.0 1.0 0.02 0.37 0.20 83 1011.1
20260505220516 50 0.0 0.0 0.02 0.37 0.20 83 1011.2
20260505215517 50 0.0 1.0 0.01 0.36 0.19 83 1011.3
20260505214516 50 0.0 2.0 0.01 0.36 0.19 83 1011.2
20260505213516 51 0.0 1.0 0.01 0.36 0.19 83 1011.2
20260505212517 51 0.0 0.0 0.01 0.35 0.18 83 1011.2
20260505211516 51 0.0 0.0 0.01 0.35 0.18 84 1011.1
20260505210537 51 0.0 1.0 0.01 0.35 0.18 84 1011.3
20260505205516 51 338 1.0 3.0 0.01 0.35 0.18 84 1011.5
20260505204516 51 0.0 2.0 0.01 0.35 0.18 84 1011.7
20260505203516 51 0.0 1.0 0.01 0.35 0.18 84 1011.7
20260505202516 51 0.0 2.0 0.00 0.34 0.17 84 1011.7
20260505201516 51 315 1.0 4.0 0.01 0.34 0.17 84 1011.8
20260505200516 51 315 1.0 4.0 0.02 0.34 0.17 84 1011.8
20260505195516 51 315 1.0 2.0 0.03 0.34 0.17 84 1012.1
20260505194536 51 0.0 2.0 0.03 0.34 0.17 84 1012.3
20260505193516 51 315 1.0 3.0 0.04 0.34 0.17 84 1012.2
20260505192516 51 0 1.0 3.0 0.04 0.34 0.17 83 1012.1
20260505191516 51 0 1.0 2.0 0.04 0.33 0.16 83 1012.4
20260505190516 51 0.0 2.0 0.05 0.32 0.15 82 1012.7
20260505185517 51 293 1.0 3.0 0.06 0.31 0.14 82 1012.8
20260505184516 52 0.0 1.0 0.07 0.31 0.14 81 1012.8
20260505183516 52 0.0 2.0 0.06 0.30 0.13 81 1012.5
20260505182516 52 0.0 3.0 0.06 0.30 0.13 80 1012.5
20260505181516 52 0.0 2.0 0.05 0.29 0.12 79 1012.5
20260505180516 53 0.0 2.0 0.03 0.27 0.10 77 1012.5
20260505175516 53 0.0 1.0 0.01 0.25 0.08 76 1012.6
20260505174516 53 293 1.0 2.0 0.00 0.24 0.07 76 1012.4
20260505173516 53 338 1.0 3.0 0.00 0.24 0.07 76 1012.2
20260505172536 53 0 2.0 4.0 0.00 0.24 0.07 76 1012.0
20260505171516 53 338 1.0 3.0 0.00 0.24 0.07 77 1012.0
20260505170516 53 338 1.0 3.0 0.00 0.24 0.07 76 1012.0
20260505165516 53 338 2.0 5.0 0.00 0.24 0.07 76 1012.1
20260505164516 52 315 1.0 3.0 0.00 0.24 0.07 78 1012.1
20260505163516 52 338 2.0 6.0 0.00 0.24 0.07 77 1012.0
20260505162516 52 315 1.0 3.0 0.00 0.24 0.07 78 1012.1
20260505161516 52 338 1.0 2.0 0.00 0.24 0.07 77 1012.0
20260505160516 51 45 1.0 3.0 0.00 0.24 0.07 76 1012.0
20260505152516 51 68 1.0 4.0 0.00 0.24 0.07 79 1010.8
20260505151516 51 338 1.0 4.0 0.00 0.24 0.07 80 1010.9
20260505150516 51 0 2.0 5.0 0.00 0.24 0.07 81 1010.8
20260505140536 49 0.0 1.0 0.03 0.24 0.07 83 1010.8
20260505124515 50 338 1.0 4.0 0.01 0.19 0.02 77 1011.8
20260505123516 50 0 1.0 3.0 0.01 0.19 0.02 78 1011.8
20260505122515 50 315 1.0 5.0 0.01 0.19 0.02 78 1011.4
20260505121516 50 248 1.0 4.0 0.01 0.19 0.02 78 1011.5
20260505120515 51 0 1.0 3.0 0.00 0.18 0.01 79 1011.0
20260505115515 51 270 2.0 5.0 0.00 0.18 0.01 80 1010.2
20260505114516 51 293 2.0 7.0 0.00 0.18 0.01 82 1010.2
20260505113516 51 270 2.0 4.0 0.00 0.18 0.01 85 1009.9
20260505112515 51 0.0 2.0 0.00 0.18 0.01 85 1009.6
20260505111515 51 0.0 1.0 0.00 0.18 0.01 86 1009.4
20260505110515 51 0.0 1.0 0.00 0.18 0.01 86 1009.4
20260505101515 52 0.0 3.0 0.00 0.18 0.01 85 1009.1
20260505100515 52 0.0 2.0 0.00 0.18 0.01 86 1008.7
20260505095517 53 315 1.0 2.0 0.00 0.18 0.01 86 1008.9
20260505094517 53 0.0 3.0 0.00 0.18 0.01 86 1008.7
20260505093557 53 0.0 1.0 0.00 0.18 0.01 86 1008.5
20260505092517 54 0.0 1.0 0.00 0.18 0.01 85 1008.4
20260505091537 54 0.0 1.0 0.00 0.18 0.01 85 1008.2
20260505090517 55 0.0 1.0 0.00 0.18 0.01 85 1008.2
20260505085517 55 0.0 3.0 0.00 0.18 0.01 85 1008.0
20260505084517 56 0.0 2.0 0.00 0.18 0.01 86 1008.2
20260505083517 57 0 1.0 3.0 0.00 0.18 0.01 86 1007.7
20260505082517 58 0.0 1.0 0.00 0.18 0.01 86 1007.7
20260505081517 58 0.0 0.0 0.00 0.18 0.01 86 1007.4
20260505080517 58 0.0 0.0 0.00 0.18 0.01 86 1007.7
20260505075517 59 0.0 1.0 0.00 0.18 0.01 86 1007.7
20260505074517 59 0.0 0.0 0.00 0.18 0.01 86 1008.1
20260505073517 59 0.0 1.0 0.00 0.18 0.01 86 1007.9
20260505072517 59 0.0 1.0 0.00 0.18 0.01 86 1007.6
20260505071517 59 0.0 0.0 0.00 0.18 0.01 86 1007.0
20260505070517 59 0.0 0.0 0.00 0.18 0.01 86 1006.7